RH
76 75 75 75 74 74 73 71 69 70 74 73 81 81 85 87 94 91 96 68 68 60 64 59 50 57 72 84 44 44 47 42 33 33 26 28 28 26 22 22 29 33 34 37 46
75 76 76 74 74 73 73 70 64 67 72 69 74 76 82 86 89 95 73 60 58 61 66 56 51 51 68 86 61 41 47 33 32 31 30 31 31 26 21 27 33 40 44 47 51
72 76 77 76 74 72 71 70 70 72 73 65 70 74 80 79 78 74 60 63 57 58 58 52 52 57 59 79 75 40 36 33 40 36 34 32 30 23 25 28 31 35 44 49 51
74 75 76 78 76 72 70 70 70 71 74 70 69 78 84 65 76 44 55 60 55 63 59 50 51 56 60 60 70 43 37 39 44 40 34 32 28 24 26 24 26 36 44 49 50
75 76 77 79 80 75 71 70 70 69 75 72 69 82 62 67 69 35 49 56 56 67 62 50 42 43 73 46 38 36 39 44 41 39 36 30 35 27 26 31 33 45 48 49 53
74 76 77 80 81 79 75 71 68 70 78 72 69 80 58 63 48 37 33 48 60 63 54 45 38 40 50 54 40 39 45 42 36 37 36 32 36 39 30 39 46 46 48 52 53
71 75 78 81 81 81 77 72 67 71 75 64 75 52 55 48 34 39 36 46 55 52 48 41 35 39 38 40 38 41 39 43 38 37 40 32 32 35 34 41 47 47 49 55 55
73 77 76 81 82 82 80 77 75 80 75 67 71 45 52 34 38 37 37 43 46 44 41 39 34 36 39 35 34 35 36 36 36 42 44 26 21 29 40 39 45 46 50 54 56
75 75 81 82 83 82 82 79 76 77 68 67 52 45 46 42 40 37 39 42 41 40 42 26 35 37 32 32 31 35 29 34 39 44 42 27 23 35 42 38 40 40 48 51 54
77 77 79 84 86 83 80 76 72 61 60 49 35 51 43 42 42 40 43 39 39 43 39 39 40 40 37 28 35 24 26 34 27 43 43 42 35 31 42 40 38 39 47 50 53
77 82 80 83 86 84 78 62 54 52 57 40 42 42 43 44 44 44 40 37 38 35 44 46 37 42 35 23 17 24 22 27 42 43 42 44 39 30 37 43 42 43 49 52 52
80 84 81 79 84 84 81 66 50 40 45 48 46 44 43 45 46 43 39 37 38 40 44 41 38 28 32 31 30 29 26 32 46 42 39 44 37 36 35 43 40 40 46 55 52
83 84 83 82 82 80 75 60 69 61 52 43 48 46 47 47 38 45 38 40 39 43 37 41 31 30 30 37 30 37 29 38 36 44 42 42 36 40 39 39 43 43 40 50 52
84 84 83 83 69 69 71 68 72 59 82 56 50 45 49 49 46 41 40 37 46 38 31 31 43 34 37 35 31 35 34 39 43 40 35 41 28 30 35 46 46 43 47 48 54
85 83 81 79 95 77 62 72 70 52 69 43 51 45 52 43 43 46 39 43 42 48 35 37 43 40 41 36 32 38 46 47 44 46 46 42 39 31 51 49 51 49 51 57 56
92 86 85 82 87 78 74 76 56 71 58 54 53 56 57 53 47 46 42 42 46 46 47 51 46 42 42 54 49 55 54 60 67 53 53 38 39 29 34 41 47 52 54 60 63
86 89 88 84 76 79 81 62 80 82 45 59 60 58 56 56 52 44 48 53 54 58 56 51 50 50 49 52 51 55 49 74 66 79 62 56 45 35 36 46 45 54 59 65 67
78 87 86 74 89 82 73 65 73 41 45 60 59 60 54 50 51 47 51 53 52 52 66 66 62 51 48 51 57 57 45 70 52 63 56 60 55 38 43 52 52 56 64 68 72
80 85 91 90 84 81 74 94 49 45 38 61 52 57 59 56 52 51 52 55 49 48 48 56 52 54 51 54 51 55 63 46 71 77 59 57 48 35 48 53 58 67 64 70 71
93 91 84 79 85 82 89 70 51 34 53 58 50 52 58 62 52 54 53 42 40 47 42 45 62 58 57 55 57 56 51 61 74 67 48 45 49 35 48 49 64 69 62 68 71
92 99 77 90 79 94 92 71 43 36 48 50 51 56 54 59 55 58 50 43 39 54 45 47 57 68 56 58 63 61 62 61 63 49 60 56 44 45 38 46 58 67 63 65 68
96 97 92 84 96 96 87 66 53 48 59 50 50 47 51 56 56 57 46 43 43 48 49 47 65 82 60 62 59 65 58 56 59 59 67 68 57 48 53 54 59 68 68 74 67
100 97 91 99 93 98 88 64 55 59 59 54 47 40 45 55 48 54 52 50 48 48 49 52 71 85 70 64 69 64 62 60 69 74 74 57 51 64 64 62 66 73 75 68 64
100 99 96 99 90 66 85 73 56 61 52 53 51 47 49 54 55 53 48 55 52 49 56 50 64 53 46 50 70 73 66 64 58 83 66 60 46 53 66 68 74 76 72 67 57
100 99 95 99 98 89 68 67 58 60 60 52 58 53 41 50 62 55 58 60 58 58 65 50 67 52 74 68 63 62 67 65 66 56 63 46 46 39 56 63 71 76 74 71 50
100 100 94 94 97 98 79 71 66 51 64 61 54 50 49 49 44 54 57 56 49 77 62 63 83 83 80 72 72 66 67 64 55 60 54 57 54 63 76 78 80 75 72 66 45
98 97 100 84 97 99 94 73 70 60 60 53 48 56 54 46 46 59 58 55 53 67 70 65 85 80 69 72 69 72 68 70 65 67 54 62 51 75 78 73 75 64 60 50 39
Wind_Speed
12 12 11 9 6 10 12 11 11 11 15 12 2 7 9 11 4 3 6 8 7 8 5 5 4 5 5 6 8 3 1 3 4 7 4 5 4 1 2 6 3 2 2 2 12
13 12 13 12 9 7 11 11 6 11 15 11 5 7 8 12 3 7 7 10 11 8 5 7 7 7 6 5 4 2 2 6 2 3 4 5 3 8 5 5 2 3 4 7 10
13 13 14 15 11 8 9 11 10 12 11 10 6 5 8 8 3 7 13 19 14 9 3 4 5 4 6 6 6 3 5 2 2 2 4 6 3 2 8 3 6 8 11 9 7
15 13 13 14 15 13 8 9 10 11 12 8 5 4 7 1 6 2 12 21 12 7 5 5 5 5 6 10 7 6 5 3 2 1 3 6 6 3 3 3 2 8 12 8 10
14 15 13 13 15 16 10 7 10 10 9 8 3 9 4 2 8 7 4 10 5 7 7 6 6 6 10 9 10 9 3 2 1 2 3 5 2 4 5 1 6 13 8 10 9
16 15 14 12 13 16 13 7 7 8 8 8 5 9 1 5 5 5 5 6 6 6 6 5 8 4 6 5 8 3 3 3 2 2 1 4 2 1 2 4 8 12 9 9 10
18 17 15 13 12 15 15 11 5 5 6 7 8 3 2 11 3 5 7 7 6 6 6 5 4 1 5 7 5 5 4 1 4 4 2 3 3 7 3 6 11 9 8 8 7
21 20 18 15 11 13 15 15 6 2 5 5 8 3 7 3 4 5 5 3 5 5 3 5 5 6 4 5 6 4 2 5 3 5 2 4 7 3 6 11 10 8 7 7 6
21 21 20 17 14 11 12 16 9 2 3 5 3 4 8 1 4 4 5 6 5 4 3 4 5 4 4 8 4 1 5 5 2 6 3 4 4 2 4 7 9 8 8 7 6
22 21 21 19 17 12 10 13 6 6 4 2 2 2 5 5 3 4 2 7 4 6 5 3 5 4 3 3 9 8 5 3 4 6 3 4 6 2 5 6 10 8 8 8 8
19 19 20 19 18 16 5 3 3 2 2 10 7 5 2 1 2 3 3 5 4 3 6 2 4 8 7 5 3 6 6 5 2 3 4 6 5 6 6 5 7 8 9 8 8
17 16 19 20 18 18 4 4 5 3 5 11 5 5 3 4 3 4 5 6 5 5 5 4 6 7 7 5 6 4 6 4 1 2 3 1 9 8 8 8 11 13 10 10 7
14 15 17 19 19 2 4 5 3 3 2 5 7 5 5 7 6 9 10 5 5 7 6 7 4 9 7 4 6 2 6 5 3 2 3 3 7 5 3 4 6 7 7 7 12
14 14 15 21 3 3 4 3 2 1 4 5 5 6 5 5 4 4 6 5 2 8 8 4 3 7 5 5 5 5 5 6 7 4 3 1 6 4 4 4 6 9 10 11 10
16 12 12 11 4 3 4 2 4 4 3 3 4 1 3 7 6 3 1 1 8 6 7 6 8 6 4 2 4 3 5 5 4 5 2 1 1 7 0 6 8 9 10 10 11
29 13 8 2 1 6 3 2 4 7 11 6 6 6 4 2 2 4 3 5 5 5 5 3 1 2 4 4 3 10 8 8 5 3 1 4 5 6 5 5 3 4 8 10 11
24 21 4 3 4 1 3 3 3 6 0 8 7 7 4 4 3 4 7 5 7 7 3 4 1 1 4 8 6 4 7 3 3 2 6 1 2 10 3 3 0 7 9 10 11
23 25 6 7 5 4 2 3 7 6 7 2 7 5 8 8 5 5 7 7 5 5 6 8 3 8 4 5 9 5 5 7 9 6 3 3 8 7 1 2 2 3 8 10 10
25 4 4 5 7 5 5 7 11 10 6 9 5 7 5 5 6 4 7 6 9 10 8 7 2 3 3 3 3 6 5 4 8 2 2 4 7 4 1 2 3 7 11 11 10
8 6 7 7 12 5 4 19 10 8 7 2 10 7 12 9 8 8 10 7 7 11 3 8 7 2 2 2 3 3 5 4 3 5 5 3 5 6 5 7 6 8 12 9 8
5 5 2 10 9 5 14 13 16 8 7 9 9 6 6 11 9 7 8 4 7 7 5 6 6 1 4 7 8 3 3 4 5 3 6 3 7 5 7 7 9 8 9 11 10
5 7 1 9 9 5 13 10 5 5 4 4 4 3 9 11 9 9 13 6 7 11 13 7 7 5 6 2 2 2 6 6 6 6 1 3 7 2 2 2 6 7 9 7 9
4 5 6 8 12 8 4 9 8 5 6 8 8 5 4 9 6 9 8 1 9 9 12 10 2 5 5 4 3 6 6 4 5 3 7 7 6 1 2 4 5 12 10 10 11
4 5 4 6 6 17 8 9 17 7 5 5 6 5 4 3 3 7 7 2 4 6 4 8 4 8 11 7 8 8 8 7 6 4 6 6 3 5 5 6 7 9 11 11 10
2 4 7 4 10 8 13 11 16 11 5 8 4 6 9 6 3 6 4 3 3 4 3 6 6 4 3 4 4 5 10 14 10 6 8 6 11 8 12 12 11 8 10 11 10
4 4 4 13 14 21 15 13 10 13 11 7 6 11 8 8 11 11 9 6 8 3 6 0 4 4 2 3 5 2 3 11 7 2 3 5 5 2 5 10 8 12 12 12 10
3 3 4 8 9 5 14 20 12 9 6 5 14 8 9 7 4 2 3 6 8 11 8 8 8 4 3 2 4 5 10 12 6 4 8 8 8 7 4 10 15 14 12 12 10
Wind_Direction
329 327 324 322 0 346 335 334 328 333 331 316 270 193 163 141 133 202 225 229 190 227 160 148 130 136 65 53 6 86 337 247 221 155 204 172 132 136 110 113 78 39 124 342 125
329 325 318 314 327 336 316 326 332 327 329 323 278 209 153 137 184 259 233 241 220 161 151 177 154 161 69 70 40 295 194 235 207 214 198 171 165 154 144 134 72 75 66 115 133
325 325 318 314 311 305 309 324 324 306 315 320 305 255 160 145 192 247 241 226 204 188 175 184 131 92 108 110 117 227 226 285 261 270 171 140 119 152 128 206 185 181 162 154 147
325 322 321 317 309 300 310 318 319 316 313 306 282 215 141 133 199 289 248 197 194 147 153 153 162 135 122 137 135 303 245 263 244 279 147 161 129 129 205 180 128 164 153 149 156
328 322 322 318 312 301 305 315 316 313 310 301 257 151 132 213 248 223 173 192 138 142 180 183 166 152 149 145 129 212 182 229 283 105 101 119 148 167 219 101 105 130 139 153 152
333 325 321 318 312 302 302 302 310 317 309 292 183 155 137 249 202 204 147 130 164 155 188 184 200 181 107 142 143 175 131 196 231 173 120 147 230 162 190 128 130 146 156 157 158
340 329 322 317 313 303 302 298 307 320 301 279 166 140 269 245 209 201 159 177 176 171 169 216 167 143 121 107 96 148 131 198 222 198 178 143 260 232 147 142 149 154 152 154 165
346 336 325 321 315 307 305 295 305 286 284 257 178 125 243 238 197 172 143 139 177 214 231 148 136 97 82 96 69 136 91 174 197 163 220 155 260 199 160 147 163 162 161 164 167
350 346 332 322 317 307 304 296 299 254 174 165 152 193 259 219 199 187 148 164 155 183 158 104 76 113 88 120 102 317 184 189 208 205 147 179 250 124 167 166 170 179 177 173 167
348 346 342 329 319 314 309 294 269 100 96 128 261 6 279 223 183 151 176 146 166 147 113 115 76 107 80 146 194 181 168 186 205 204 175 174 252 236 183 181 191 186 182 181 182
346 344 345 337 327 320 355 15 345 10 182 187 192 225 229 198 99 185 172 129 125 93 153 160 129 194 184 202 149 135 118 151 222 179 153 217 258 237 188 191 196 199 192 188 185
339 342 342 343 331 319 294 177 229 194 285 219 215 254 208 174 135 207 137 156 150 156 132 83 203 199 135 153 127 131 120 166 63 130 137 28 266 240 188 210 200 191 196 187 166
330 336 340 336 322 3 254 237 151 221 229 267 181 172 194 142 214 200 149 168 136 139 182 151 182 144 136 157 134 127 143 168 149 125 67 334 285 219 213 187 175 198 191 178 177
317 328 341 341 53 319 250 311 155 178 41 249 195 249 145 166 214 186 186 161 134 158 159 153 135 142 127 173 143 153 169 131 130 114 214 354 271 276 215 214 207 195 185 180 170
303 312 336 346 269 299 286 299 275 62 345 202 157 125 169 165 147 226 185 117 156 140 132 213 157 147 138 182 141 154 106 115 98 95 67 215 122 266 150 237 222 204 195 181 173
339 293 332 46 204 249 305 358 359 46 257 164 132 165 153 197 186 145 145 53 145 100 41 96 162 106 127 72 62 159 84 49 58 75 311 216 170 271 196 207 203 174 180 169 161
324 309 281 160 234 60 21 47 27 194 207 177 167 161 181 181 187 163 161 171 154 109 169 30 26 54 128 85 8 69 93 35 10 354 219 49 123 251 226 226 237 184 165 160 155
324 319 216 218 215 142 88 91 206 235 207 150 126 110 171 165 215 177 131 187 240 98 127 149 229 170 178 161 170 186 147 162 190 191 200 92 229 260 190 347 346 113 139 143 149
327 301 230 228 173 127 120 212 204 178 189 157 86 125 219 207 162 151 203 203 200 183 143 141 174 52 57 123 123 180 195 169 107 21 56 208 281 274 213 95 79 134 141 154 157
306 269 229 184 155 120 151 228 213 187 128 240 170 160 173 185 160 184 176 201 203 189 174 197 102 3 134 102 41 165 162 104 16 144 224 267 274 239 197 189 163 163 162 155 144
300 246 221 144 141 164 213 215 231 233 152 173 218 137 177 168 170 204 208 257 200 164 126 141 102 258 120 209 171 139 195 62 113 151 165 163 255 208 195 188 180 178 167 154 145
304 281 121 177 188 197 219 194 216 233 172 213 158 143 171 168 165 192 205 234 156 148 161 195 117 147 199 265 197 189 183 161 138 207 98 140 269 91 194 250 161 154 142 122 123
275 261 202 239 201 215 251 208 217 176 214 187 204 228 180 164 170 192 183 134 161 155 160 184 184 100 12 353 353 216 197 149 115 88 193 140 251 71 42 110 121 138 137 134 129
267 274 253 228 263 195 172 207 215 194 205 200 166 137 128 170 266 174 184 68 195 171 158 108 131 162 186 193 142 188 184 171 134 125 163 218 187 210 185 159 149 146 143 141 141
266 286 319 283 240 202 191 177 208 207 208 172 192 198 172 155 144 165 138 117 92 185 84 137 155 131 51 107 131 167 171 170 188 174 162 211 188 212 190 181 170 143 136 137 135
271 317 302 279 270 243 189 212 189 209 158 207 202 189 189 166 184 190 138 178 181 166 154 334 153 105 45 51 43 104 157 190 208 173 268 123 236 71 81 105 142 155 149 145 144
285 244 264 279 292 286 217 204 189 164 220 208 196 135 186 214 127 13 95 102 145 146 153 140 133 101 172 88 86 333 205 184 179 182 162 183 205 161 151 164 165 157 150 146 144